EW2142 Weather Reports


Display with metric or nautical units.
time (UTC)temp
F
wind
direction
speed
MPH
gust
MPH
rain 1hr
in
rain 24hr
in
rain mn
in
humidity
%
barometer
mb
20260902173024 60 317 1.0 7.0 0.00 0.01 0.01 55 1010.4
20260902172503 61 316 0.0 6.0 0.00 0.01 0.01 55 1010.4
20260902172003 61 312 0.0 6.0 0.00 0.01 0.01 56 1010.4
20260902171503 61 323 0.0 4.0 0.00 0.01 0.01 54 1010.4
20260902171024 61 318 0.0 5.0 0.00 0.01 0.01 54 1010.4
20260902170503 61 317 1.0 5.0 0.00 0.01 0.01 55 1010.4
20260902170003 61 326 1.0 4.0 0.00 0.01 0.01 54 1010.4
20260902165503 61 324 1.0 4.0 0.00 0.01 0.01 53 1010.5
20260902165024 62 308 1.0 10.0 0.00 0.01 0.01 54 1010.5
20260902164502 62 300 1.0 10.0 0.00 0.01 0.01 55 1010.5
20260902164024 62 289 0.0 7.0 0.00 0.01 0.01 57 1010.4
20260902163503 62 303 0.0 5.0 0.00 0.01 0.01 56 1010.4
20260902163003 62 299 0.0 5.0 0.00 0.01 0.01 57 1010.5
20260902162503 62 304 1.0 7.0 0.00 0.01 0.01 57 1010.5
20260902162003 63 305 0.0 7.0 0.00 0.01 0.01 57 1010.5
20260902161503 63 295 0.0 2.0 0.00 0.01 0.01 57 1010.5
20260902161003 63 302 1.0 7.0 0.00 0.01 0.01 57 1010.5
20260902160524 63 299 1.0 7.0 0.00 0.01 0.01 59 1010.5
20260902160024 63 295 1.0 7.0 0.00 0.01 0.01 59 1010.6
20260902155503 63 307 1.0 8.0 0.00 0.01 0.01 59 1010.5
20260902155003 63 310 1.0 8.0 0.00 0.01 0.01 62 1010.5
20260902154503 63 307 1.0 10.0 0.00 0.01 0.01 61 1010.5
20260902154002 63 304 2.0 10.0 0.00 0.01 0.01 62 1010.4
20260902153503 64 305 1.0 8.0 0.00 0.01 0.01 62 1010.4
20260902153003 64 308 1.0 4.0 0.00 0.01 0.01 62 1010.4
20260902152502 64 267 0.0 4.0 0.00 0.01 0.01 62 1010.4
20260902152003 65 284 0.0 4.0 0.00 0.01 0.01 62 1010.4
20260902151503 65 276 1.0 4.0 0.00 0.01 0.01 62 1010.4
20260902151003 65 270 0.0 4.0 0.00 0.01 0.01 62 1010.4
20260902150503 65 301 1.0 5.0 0.00 0.01 0.01 62 1010.4
20260902150003 65 283 1.0 7.0 0.00 0.01 0.01 60 1010.4
20260902145503 65 169 1.0 7.0 0.00 0.01 0.01 59 1010.5
20260902145003 65 305 1.0 10.0 0.00 0.01 0.01 60 1010.5
20260902144502 65 312 1.0 10.0 0.00 0.01 0.01 58 1010.6
20260902144002 66 316 1.0 7.0 0.00 0.01 0.01 62 1010.5
20260902143503 66 310 1.0 7.0 0.00 0.01 0.01 62 1010.3
20260902143003 66 291 1.0 7.0 0.00 0.01 0.01 62 1010.4
20260902142502 66 296 1.0 7.0 0.00 0.01 0.01 62 1010.4
20260902142003 66 299 0.0 4.0 0.00 0.01 0.01 62 1010.3
20260902141503 66 299 0.0 4.0 0.00 0.01 0.01 62 1010.3
20260902141003 66 291 0.0 4.0 0.00 0.01 0.01 61 1010.3
20260902140503 66 283 0.0 3.0 0.00 0.01 0.01 62 1010.2
20260902140003 66 288 1.0 5.0 0.00 0.01 0.01 60 1010.2
20260902135503 66 302 1.0 5.0 0.00 0.01 0.01 61 1010.3
20260902135024 66 309 1.0 5.0 0.00 0.01 0.01 62 1010.3
20260902134503 66 309 1.0 7.0 0.00 0.01 0.01 62 1010.2
20260902134003 66 312 1.0 7.0 0.00 0.01 0.01 62 1010.2
20260902133523 66 311 1.0 5.0 0.00 0.01 0.01 62 1010.2
20260902133003 66 309 1.0 6.0 0.00 0.01 0.01 62 1010.2
20260902132503 66 304 1.0 6.0 0.00 0.01 0.01 62 1010.3
20260902132003 68 267 0.0 2.0 0.00 0.01 0.01 61 1010.3
20260902131524 68 317 0.0 6.0 0.00 0.01 0.01 62 1010.2
20260902131003 68 320 1.0 6.0 0.00 0.01 0.01 62 1010.3
20260902130503 68 313 0.0 5.0 0.00 0.01 0.01 62 1010.3
20260902130024 68 310 0.0 2.0 0.00 0.01 0.01 62 1010.4
20260902125503 68 315 0.0 2.0 0.00 0.01 0.01 60 1010.4
20260902125003 69 314 1.0 5.0 0.00 0.01 0.01 60 1010.4
20260902124503 69 314 1.0 5.0 0.00 0.01 0.01 58 1010.4
20260902124003 69 301 0.0 1.0 0.00 0.01 0.01 60 1010.4
20260902123503 69 297 0.0 3.0 0.00 0.01 0.01 58 1010.4
20260902123024 69 297 1.0 3.0 0.00 0.01 0.01 55 1010.4
20260902122503 69 296 0.0 3.0 0.00 0.01 0.01 57 1010.5
20260902122003 69 303 1.0 6.0 0.00 0.01 0.01 57 1010.5
20260902121502 68 290 0.0 6.0 0.00 0.01 0.01 59 1010.6
20260902121003 68 302 1.0 4.0 0.00 0.01 0.01 58 1010.6
20260902120524 68 318 1.0 4.0 0.00 0.01 0.01 61 1010.5
20260902120003 68 314 0.0 3.0 0.00 0.01 0.01 59 1010.6
20260902115503 68 305 0.0 3.0 0.00 0.01 0.01 57 1010.7
20260902115003 68 309 0.0 2.0 0.00 0.01 0.01 57 1010.6
20260902114503 67 295 0.0 3.0 0.00 0.01 0.01 60 1010.6
20260902114024 66 309 1.0 4.0 0.00 0.01 0.01 59 1010.6
20260902113503 66 309 0.0 4.0 0.00 0.01 0.01 57 1010.8
20260902113023 66 304 0.0 3.0 0.00 0.01 0.01 59 1010.8
20260902112503 66 308 0.0 3.0 0.00 0.01 0.01 56 1010.8
20260902112003 66 323 0.0 4.0 0.00 0.01 0.01 58 1010.8
20260902111502 66 312 1.0 4.0 0.00 0.01 0.01 55 1010.8
20260902111024 66 306 0.0 4.0 0.00 0.01 0.01 53 1010.9
20260902110503 66 313 0.0 1.0 0.00 0.01 0.01 58 1010.8
20260902110005 66 78 0.0 2.0 0.00 0.01 0.01 59 1010.8
20260902105503 66 320 0.0 3.0 0.00 0.01 0.01 61 1010.9
20260902105024 66 306 0.0 3.0 0.00 0.01 0.01 59 1010.9
20260902104504 66 299 0.0 3.0 0.00 0.01 0.01 61 1010.8
20260902104003 65 289 0.0 2.0 0.00 0.01 0.01 58 1010.9
20260902103502 66 298 0.0 2.0 0.00 0.01 0.01 59 1010.9
20260902103003 66 312 0.0 2.0 0.00 0.01 0.01 59 1010.9
20260902102503 66 305 1.0 6.0 0.00 0.01 0.01 59 1010.9
20260902102002 66 297 1.0 6.0 0.00 0.01 0.01 59 1010.8
20260902101503 66 290 0.0 6.0 0.00 0.01 0.01 58 1010.9
20260902101003 66 305 1.0 6.0 0.00 0.01 0.01 59 1010.8
20260902100503 66 291 0.0 3.0 0.00 0.01 0.01 60 1010.9
20260902100003 66 262 0.0 2.0 0.00 0.01 0.01 59 1010.9
20260902095503 66 313 0.0 5.0 0.00 0.01 0.01 60 1010.9
20260902095003 65 301 0.0 5.0 0.00 0.01 0.01 62 1011.0
20260902094503 65 310 1.0 5.0 0.00 0.01 0.01 60 1011.0
20260902094023 65 326 1.0 5.0 0.00 0.01 0.01 60 1010.9
20260902093503 66 286 0.0 2.0 0.00 0.01 0.01 61 1010.9
20260902093003 66 289 0.0 4.0 0.00 0.01 0.01 60 1010.9
20260902092503 66 289 1.0 5.0 0.00 0.01 0.01 60 1011.0
20260902092003 65 286 0.0 5.0 0.00 0.01 0.01 59 1010.9
20260902091503 66 306 1.0 7.0 0.00 0.01 0.01 61 1010.8
20260902091003 66 305 0.0 7.0 0.00 0.01 0.01 61 1010.8
20260902090525 66 297 0.0 4.0 0.00 0.01 0.01 60 1010.8
20260902090003 65 311 1.0 5.0 0.00 0.01 0.01 62 1010.7
20260902085503 65 297 1.0 5.0 0.00 0.01 0.01 61 1010.7
20260902085003 65 218 0.0 3.0 0.00 0.01 0.01 60 1010.8
20260902084503 64 307 1.0 6.0 0.00 0.01 0.01 61 1010.7
20260902084024 64 305 1.0 6.0 0.00 0.01 0.01 61 1010.7
20260902083503 64 300 1.0 6.0 0.00 0.01 0.01 62 1010.6
20260902083003 64 295 1.0 4.0 0.00 0.01 0.01 61 1010.6
20260902082503 64 294 0.0 4.0 0.00 0.01 0.01 62 1010.7
20260902082003 65 297 0.0 3.0 0.00 0.01 0.01 62 1010.5
20260902081503 65 302 0.0 3.0 0.00 0.01 0.01 61 1010.5
20260902081024 64 323 0.0 6.0 0.00 0.01 0.01 61 1010.5
20260902080503 64 312 0.0 6.0 0.00 0.01 0.01 57 1010.4
20260902080003 64 308 0.0 4.0 0.00 0.01 0.01 56 1010.4
20260902075503 64 272 0.0 2.0 0.00 0.01 0.01 56 1010.4
20260902075003 64 264 0.0 3.0 0.00 0.01 0.01 50 1010.4
20260902074503 63 272 0.0 3.0 0.00 0.01 0.01 49 1010.3
20260902074003 63 303 1.0 7.0 0.00 0.01 0.01 34 1010.3
20260902073503 62 304 1.0 7.0 0.00 0.01 0.01 33 1010.2
20260902073024 61 289 0.0 3.0 0.00 0.01 0.01 16 1010.1
20260902072503 60 286 0.0 5.0 0.00 0.01 0.01 4 1010.1
20260902072002 60 278 1.0 5.0 0.00 0.01 0.01 4 1010.1
20260902071503 60 293 1.0 3.0 0.00 0.01 0.01 1 1010.0
20260902071003 60 292 1.0 3.0 0.00 0.01 0.01 1 1010.0
20260902070503 60 278 0.0 3.0 0.00 0.01 0.01 1 1010.0
20260902070003 60 287 0.0 4.0 0.00 0.01 0.01 1 1009.9
20260902065524 60 288 0.0 4.0 0.00 0.01 0.01 1 1009.8
20260902065003 60 313 0.0 2.0 0.00 0.01 0.01 1 1009.9
20260902064503 60 301 0.0 1.0 0.00 0.01 0.01 1 1009.8
20260902064003 60 292 0.0 2.0 0.00 0.01 0.01 1 1009.8
20260902063523 60 312 0.0 4.0 0.00 0.01 0.01 1 1009.8
20260902063003 60 293 0.0 4.0 0.00 0.01 0.01 1 1009.8
20260902062523 59 259 0.0 4.0 0.00 0.01 0.01 1 1009.8
20260902062003 59 237 0.0 4.0 0.00 0.01 0.01 1 1009.7
20260902061545 59 253 0.0 4.0 0.00 0.01 0.01 1 1009.7
20260902061024 59 0 0.0 0.0 0.00 0.01 0.01 1 1009.7
20260902060503 58 0 0.0 1.0 0.00 0.01 0.01 1 1009.8
20260902060003 58 0 0.0 1.0 0.00 0.01 0.01 1 1009.7
20260902055503 58 0 0.0 1.0 0.00 0.01 0.01 1 1009.7
20260902055003 58 0 0.0 1.0 0.00 0.01 0.01 1 1009.7
20260902054503 58 0 0.0 1.0 0.00 0.01 0.01 1 1009.7
20260902054003 58 0 0.0 1.0 0.00 0.01 0.01 1 1009.7
20260902053502 58 0 0.0 1.0 0.00 0.01 0.01 1 1009.6
20260902053003 58 0 0.0 1.0 0.00 0.01 0.01 1 1009.6
20260902052503 58 0 0.0 1.0 0.00 0.01 0.01 1 1009.7
20260902052002 58 0 0.0 1.0 0.00 0.01 0.01 1 1009.7
20260902051503 58 0 0.0 1.0 0.00 0.01 0.01 1 1009.7
20260902051003 58 0 0.0 1.0 0.00 0.01 0.01 1 1009.6
20260902050503 58 0 0.0 1.0 0.00 0.01 0.01 1 1009.6
20260902050005 58 0 0.0 1.0 0.00 0.01 0.01 1 1009.7
20260902045503 58 0 0.0 1.0 0.01 0.01 0.01 1 1009.6
20260902045024 58 0 0.0 1.0 0.01 0.01 0.01 1 1009.6
20260902044524 58 0 0.0 1.0 0.01 0.01 0.01 1 1009.6
20260902044003 58 0 0.0 1.0 0.01 0.01 0.01 1 1009.6
20260902043502 58 0 0.0 1.0 0.01 0.01 0.01 1 1009.5
20260902043003 58 0 0.0 1.0 0.01 0.01 0.01 1 1009.4
20260902042502 58 0 0.0 1.0 0.01 0.01 0.01 1 1009.5
20260902042003 58 0 0.0 1.0 0.01 0.01 0.01 1 1009.5
20260902041503 58 0 0.0 1.0 0.01 0.01 0.01 1 1009.6
20260902041002 58 298 0.0 1.0 0.01 0.01 0.01 1 1009.6
20260902040503 58 298 0.0 1.0 0.01 0.01 0.01 1 1009.6
20260902040024 58 258 0.0 1.0 0.01 0.01 0.01 1 1009.6
20260902035503 58 243 0.0 1.0 0.00 0.00 0.00 1 1009.6
20260902035003 58 236 0.0 1.0 0.00 0.00 0.00 1 1009.7
20260902034503 58 236 0.0 1.0 0.00 0.00 0.00 1 1009.7
20260902034003 58 0 0.0 0.0 0.00 0.00 0.00 1 1009.7
20260902033503 58 0 0.0 0.0 0.00 0.00 0.00 1 1009.7
20260902033003 58 0 0.0 0.0 0.00 0.00 0.00 1 1009.7
20260902032524 58 0 0.0 0.0 0.00 0.00 0.00 1 1009.7
20260902032003 58 0 0.0 0.0 0.00 0.00 0.00 1 1009.7
20260902031503 58 0 0.0 0.0 0.00 0.00 0.00 1 1009.8
20260902031003 58 0 0.0 0.0 0.00 0.00 0.00 1 1009.8
20260902030503 58 0 0.0 0.0 0.00 0.00 0.00 1 1009.9
20260902030003 58 0 0.0 0.0 0.00 0.00 0.00 1 1009.9
20260902025524 58 148 0.0 1.0 0.00 0.00 0.00 1 1010.0
20260902025024 58 148 0.0 1.0 0.00 0.00 0.00 1 1010.0
20260902024503 58 0 0.0 0.0 0.00 0.00 0.00 1 1010.0
20260902024003 58 0 0.0 0.0 0.00 0.00 0.00 1 1010.0
20260902023503 58 0 0.0 0.0 0.00 0.00 0.00 1 1010.1
20260902023003 58 0 0.0 0.0 0.00 0.00 0.00 1 1010.2
20260902022502 58 0 0.0 0.0 0.00 0.00 0.00 1 1010.1
20260902022003 58 0 0.0 0.0 0.00 0.00 0.00 1 1010.2
20260902021503 58 0 0.0 0.0 0.00 0.00 0.00 1 1010.3
20260902021003 58 0 0.0 0.0 0.00 0.00 0.00 1 1010.3
20260902020503 58 0 0.0 0.0 0.00 0.00 0.00 1 1010.3
20260902020003 58 0 0.0 0.0 0.00 0.00 0.00 1 1010.3
20260902015503 58 0 0.0 0.0 0.00 0.00 0.00 1 1010.2
20260902015003 58 123 0.0 1.0 0.00 0.00 0.00 1 1010.3
20260902014524 58 123 0.0 1.0 0.00 0.00 0.00 1 1010.4
20260902014003 58 0 0.0 0.0 0.00 0.00 0.00 1 1010.4
20260902013503 58 0 0.0 0.0 0.00 0.00 0.00 1 1010.5
20260902013024 58 123 0.0 1.0 0.00 0.00 0.00 1 1010.5
20260902012503 58 123 0.0 1.0 0.00 0.00 0.00 1 1010.6
20260902012003 58 0 0.0 0.0 0.00 0.00 0.00 1 1010.5
20260902011503 58 0 0.0 0.0 0.00 0.00 0.00 1 1010.6
20260902011024 58 0 0.0 0.0 0.00 0.00 0.00 1 1010.6
20260902010503 58 0 0.0 0.0 0.00 0.00 0.00 1 1010.7
20260902010003 58 0 0.0 0.0 0.00 0.00 0.00 1 1010.7
20260902005503 58 0 0.0 0.0 0.00 0.00 0.00 1 1010.8
20260902005024 58 0 0.0 0.0 0.00 0.00 0.00 1 1010.7
20260902004503 58 0 0.0 0.0 0.00 0.00 0.00 1 1010.8
20260902004003 58 103 0.0 1.0 0.00 0.00 0.00 1 1010.8
20260902003524 58 103 0.0 1.0 0.00 0.00 0.00 1 1010.9
20260902003002 58 153 0.0 1.0 0.00 0.00 0.00 1 1010.9
20260902002524 58 153 0.0 1.0 0.00 0.00 0.00 1 1010.9
20260902002023 58 0 0.0 0.0 0.00 0.00 0.00 1 1010.9
20260902001502 57 0 0.0 0.0 0.00 0.03 0.00 1 1010.9
20260902001003 57 155 0.0 1.0 0.00 0.04 0.00 1 1011.0
20260902000524 57 155 0.0 1.0 0.00 0.07 0.00 1 1011.0
20260902000003 57 0 0.0 0.0 0.00 0.13 0.00 1 1011.0
20260901235503 57 0 0.0 0.0 0.00 0.13 0.00 1 1011.0
20260901235003 57 0 0.0 0.0 0.00 0.13 0.00 1 1011.0
20260901234503 57 251 0.0 1.0 0.00 0.13 0.00 1 1010.9
20260901234003 57 251 0.0 1.0 0.00 0.13 0.00 1 1011.0
20260901233503 57 0 0.0 0.0 0.00 0.13 0.00 1 1011.0
20260901233002 57 0 0.0 0.0 0.00 0.13 0.00 1 1011.1
20260901232503 57 178 0.0 1.0 0.00 0.13 0.00 1 1011.1
20260901232003 57 161 0.0 1.0 0.00 0.13 0.00 2 1011.1
20260901231502 57 120 0.0 1.0 0.00 0.13 0.00 3 1011.1
20260901231003 57 0 0.0 1.0 0.00 0.13 0.00 3 1011.1
20260901230503 57 112 0.0 1.0 0.00 0.13 0.00 4 1011.1
20260901230004 57 112 0.0 1.0 0.00 0.13 0.00 8 1011.1
20260901225524 57 245 0.0 1.0 0.00 0.13 0.00 11 1011.1
20260901225003 58 263 0.0 3.0 0.00 0.13 0.00 14 1011.0
20260901224503 58 251 0.0 3.0 0.00 0.13 0.00 15 1011.0
20260901224003 58 271 0.0 3.0 0.00 0.13 0.00 14 1011.0
20260901223503 58 296 0.0 3.0 0.00 0.13 0.00 17 1011.0
20260901223002 58 145 0.0 3.0 0.00 0.13 0.00 15 1011.1
20260901222503 58 260 0.0 3.0 0.00 0.13 0.00 15 1011.1
20260901222002 58 293 0.0 3.0 0.00 0.13 0.00 13 1011.1
20260901221503 58 323 0.0 3.0 0.00 0.13 0.00 6 1011.1
20260901221002 58 330 0.0 3.0 0.00 0.13 0.00 4 1011.1
20260901220503 58 114 0.0 1.0 0.00 0.13 0.00 1 1011.1
20260901220004 58 117 0.0 2.0 0.00 0.13 0.00 1 1011.1
20260901215503 58 140 0.0 2.0 0.00 0.13 0.13 1 1011.1
20260901215024 58 257 0.0 1.0 0.00 0.13 0.13 1 1011.1
20260901214503 58 254 0.0 1.0 0.00 0.13 0.13 1 1011.0
20260901214003 58 0 0.0 1.0 0.00 0.13 0.13 2 1011.0
20260901213503 58 0 0.0 0.0 0.00 0.13 0.13 3 1011.0
20260901213003 58 268 0.0 1.0 0.00 0.13 0.13 3 1010.9
20260901212503 58 285 0.0 1.0 0.00 0.13 0.13 3 1010.9
20260901212002 58 291 0.0 1.0 0.00 0.13 0.13 6 1010.8
20260901211503 59 291 0.0 1.0 0.00 0.13 0.13 5 1010.8
20260901211024 59 329 0.0 2.0 0.00 0.13 0.13 2 1010.8
20260901210503 59 304 0.0 2.0 0.00 0.13 0.13 5 1010.8
20260901210003 59 308 0.0 2.0 0.00 0.13 0.13 4 1010.8
20260901205503 59 319 0.0 2.0 0.00 0.13 0.13 4 1010.8
20260901205003 59 288 0.0 1.0 0.00 0.13 0.13 3 1010.8
20260901204503 59 70 0.0 1.0 0.00 0.13 0.13 1 1010.7
20260901204003 59 120 0.0 1.0 0.00 0.13 0.13 1 1010.7
20260901203503 59 269 0.0 1.0 0.00 0.13 0.13 1 1010.7
20260901203003 59 42 0.0 4.0 0.00 0.13 0.13 1 1010.7
20260901202524 59 70 0.0 4.0 0.00 0.13 0.13 2 1010.7
20260901202024 59 119 0.0 2.0 0.00 0.13 0.13 2 1010.6
20260901201503 59 101 0.0 3.0 0.00 0.13 0.13 1 1010.7
20260901201003 59 279 0.0 3.0 0.00 0.13 0.13 1 1010.7
20260901200524 59 117 0.0 2.0 0.00 0.13 0.13 1 1010.6
20260901200003 59 349 0.0 1.0 0.00 0.13 0.13 1 1010.6
20260901195503 59 356 0.0 1.0 0.00 0.13 0.13 1 1010.6
20260901195003 59 331 0.0 1.0 0.00 0.13 0.13 1 1010.6
20260901194503 59 322 0.0 1.0 0.00 0.13 0.13 1 1010.6
20260901194024 59 139 0.0 1.0 0.00 0.13 0.13 1 1010.5
20260901193503 59 139 0.0 1.0 0.00 0.13 0.13 1 1010.5
20260901193003 59 214 0.0 1.0 0.00 0.13 0.13 1 1010.5
20260901192523 59 261 0.0 1.0 0.00 0.13 0.13 1 1010.4
20260901192003 60 207 0.0 1.0 0.00 0.13 0.13 1 1010.4
20260901191503 60 323 0.0 1.0 0.00 0.13 0.13 1 1010.5
20260901191023 60 313 0.0 1.0 0.00 0.13 0.13 1 1010.4
20260901190503 60 285 0.0 1.0 0.00 0.13 0.13 1 1010.4
20260901190003 59 165 0.0 1.0 0.00 0.13 0.13 1 1010.5
20260901185503 59 193 0.0 1.0 0.00 0.13 0.13 1 1010.5
20260901185003 60 136 0.0 1.0 0.00 0.13 0.13 1 1010.4
20260901184503 60 4 0.0 1.0 0.00 0.13 0.13 1 1010.4
20260901184003 60 347 0.0 1.0 0.00 0.13 0.13 1 1010.4
20260901183503 60 347 0.0 2.0 0.00 0.13 0.13 1 1010.4
20260901183003 60 321 0.0 3.0 0.00 0.13 0.13 1 1010.4
20260901182503 60 303 0.0 3.0 0.00 0.13 0.13 1 1010.4
20260901182003 60 312 0.0 2.0 0.00 0.13 0.13 1 1010.4
20260901181502 60 282 0.0 2.0 0.00 0.13 0.13 1 1010.3
20260901181024 60 298 0.0 7.0 0.00 0.13 0.13 1 1010.3
20260901180503 60 309 0.0 7.0 0.00 0.13 0.13 3 1010.3
20260901180024 60 301 0.0 1.0 0.00 0.13 0.13 3 1010.3
20260901175503 60 307 0.0 1.0 0.00 0.13 0.13 7 1010.2
20260901175003 60 0 0.0 0.0 0.00 0.13 0.13 7 1010.2
20260901174503 61 114 0.0 1.0 0.00 0.13 0.13 10 1010.2
20260901174003 61 114 0.0 1.0 0.00 0.13 0.13 12 1010.2
20260901173503 61 319 0.0 2.0 0.00 0.13 0.13 13 1010.2